[[{"header":{"parameterUnit":"m.s-1","parameterCategory":2,"la1":30.2991,"la2":30.254,"lo1":-89.0895,"lo2":-89.0444,"dy":0.0017,"dx":0.0017,"nx":28,"ny":28,"refTime":"2024-07-03T21:00:00:Z","depth":"0","parameterNumber":2,"parameterNumberName":"U-component_of_CURRENTS"},"data":[0,0,0,0,0,0,0,0,0,0,0,0,0,0,0,0,0,0,0,0,0,0,0,0,0,0,0,0,0,0,0,0,0,0,0,0,0,0,0,0,0,0,0,0,0,0,0,0,0,0,0,0,0,0,0,0,0,0,0.3269,0.327,0,0.3287,0.3287,0.3287,0.3263,0.3263,0.3262,0.3261,0.33,0.3302,0.3303,0,0,0,0,0,0,0,0,0,0,0,0,0,0.3274,0.3273,0.3269,0.327,0.327,0.3287,0.3287,0.3287,0.3263,0.3263,0.3262,0.3261,0.33,0.3301,0.3303,0,0,0,0,0,0,0,0,0,0,0,0,0,0.3277,0.3273,0.3269,0.3263,0.3262,0.3287,0.3287,0.3287,0.3263,0.3263,0.3262,0.3261,0.3299,0.3301,0.3304,0.3337,0,0,0.3311,0.3312,0,0,0,0,0,0,0,0,0.3277,0.3277,0.3263,0.3263,0.3263,0.3275,0.3303,0.3306,0.3264,0.326,0.3261,0.326,0.3296,0.3299,0.33,0.3339,0.334,0.3311,0.3313,0.3314,0.3314,0,0,0,0,0,0,0,0.3277,0.3276,0.3274,0.3264,0.3264,0.3279,0.3278,0.3304,0.3281,0.326,0.3259,0.3266,0.3296,0.3297,0.3301,0.3341,0.3311,0.3313,0.3315,0.3316,0.3393,0.3394,0,0,0,0,0,0,0.3278,0.3276,0.3273,0.3274,0.3271,0.328,0.3278,0.3269,0.328,0.3282,0.3267,0.3265,0.3294,0.3298,0.3302,0.3353,0.3314,0.3316,0.3317,0.3393,0.3394,0.3394,0,0,0,0,0,0,0.3278,0.3277,0.3272,0.3279,0.328,0.3281,0.3271,0.327,0.3272,0.3286,0.3287,0.3269,0.3293,0.3299,0.3323,0.3354,0.3317,0.3319,0.3392,0.3393,0.3394,0.3449,0,0,0,0,0,0,0.3277,0.3276,0.3278,0.3278,0.3279,0.3296,0.3272,0.3271,0.3279,0.3276,0.3289,0.3291,0.3293,0.332,0.3326,0.3357,0.3321,0.3391,0.3392,0.3394,0.3447,0.3452,0.3457,0,0,0,0,0,0.3277,0.3286,0.3277,0.3278,0.3278,0.3297,0.3299,0.3295,0.328,0.329,0.329,0.3291,0.3331,0.3323,0.3329,0.3362,0.3391,0.3392,0.3394,0.3445,0.3451,0.3457,0,0,0,0,0,0,0.3297,0.3285,0.3275,0.3281,0.3291,0.3294,0.331,0.33,0.3308,0.3306,0.3304,0.3308,0.3351,0.334,0.333,0.3384,0.336,0.3362,0.3396,0.3402,0.3407,0.3478,0.3323,0,0,0,0,0,0.3301,0.3299,0.3297,0.3306,0.331,0.3309,0.3317,0.3314,0.332,0.3321,0.3328,0.3336,0.3364,0.3367,0.3395,0.3418,0.3474,0.344,0.3445,0.3449,0.351,0.3629,0.3653,0.3399,0.3399,0.3399,0,0,0.3313,0.3308,0.3308,0.331,0.3316,0.333,0.3311,0.333,0.3346,0.3328,0.3354,0.337,0.3378,0.3415,0.343,0.3405,0.3537,0.3451,0.3455,0.3515,0.3634,0.3659,0.3682,0.34,0.34,0.34,0,0,0.334,0.3331,0.3337,0.3345,0.3357,0.3358,0.3364,0.337,0.3376,0.3401,0.3401,0.3444,0.345,0.3485,0.3496,0.3546,0.3576,0.3525,0.3596,0.3709,0.3733,0.3755,0.381,0.3837,0.3508,0.3508,0.3508,0,0.3358,0.3353,0.3348,0.336,0.3373,0.337,0.3389,0.3401,0.3416,0.3452,0.3416,0.3507,0.3502,0.3589,0.3593,0.3568,0.3614,0.357,0.3722,0.3745,0.3767,0.3819,0.3847,0.3511,0.351,0.351,0.351,0,0.3382,0.3384,0.3395,0.3399,0.3419,0.3438,0.3453,0.3485,0.3488,0.3512,0.3605,0.3616,0.368,0.3663,0.364,0.3778,0.3754,0.3732,0.3718,0.3797,0.3844,0.3873,0.3515,0.3514,0.3513,0.3512,0,0,0.3401,0.3407,0.3409,0.3422,0.3438,0.3462,0.351,0.3569,0.3641,0.3658,0.3766,0.3799,0.3833,0.3852,0.384,0.3917,0.4067,0.3883,0.3888,0.3958,0.4292,0.4134,0.415,0.4074,0.408,0.4085,0.4247,0,0.3419,0.3435,0.3441,0.348,0.3493,0.3526,0.3582,0.3645,0.3703,0.381,0.3862,0.3955,0.389,0.3938,0.4012,0.4081,0.4154,0.4024,0.4191,0.4196,0.4065,0.4184,0.3921,0.4034,0.4275,0.428,0.4284,0,0.3429,0.3441,0.3464,0.3526,0.3541,0.3577,0.3701,0.3754,0.3902,0.396,0.4076,0.4126,0.4258,0.4185,0.4371,0.4289,0.4313,0.4342,0.4348,0.4223,0.4096,0.4002,0.4077,0.3969,0.4328,0.4325,0.4322,0,0.3425,0.3462,0.348,0.3493,0.3562,0.3615,0.3672,0.3807,0.3899,0.4082,0.4187,0.4333,0.4426,0.4519,0.4542,0.449,0.4733,0.4661,0.4544,0.453,0.4357,0.4316,0.4374,0.4824,0.4823,0.4823,0.4823,0,0.3426,0.3449,0.3483,0.3496,0.3583,0.3628,0.3763,0.3857,0.4025,0.4155,0.427,0.4404,0.4524,0.4642,0.4649,0.4685,0.482,0.4618,0.4595,0.4354,0.4315,0.4249,0.4196,0.4829,0.4828,0.4826,0.4825,0,0.342,0.3423,0.3469,0.3542,0.3576,0.3646,0.3801,0.3902,0.4062,0.4248,0.4316,0.4518,0.4657,0.4731,0.4882,0.4806,0.4712,0.4826,0.45,0.4435,0.4178,0.4135,0.4089,0.3983,0.4752,0.475,0.4748,0,0.3413,0.3424,0.3501,0.3538,0.3574,0.3679,0.3752,0.3907,0.4015,0.4293,0.4376,0.4582,0.4675,0.4823,0.4743,0.4746,0.4637,0.45,0.4356,0.4182,0.4122,0.3986,0.3892,0.4133,0.4126,0.4121,0.4116,0,0.3428,0.3451,0.349,0.3558,0.3623,0.3704,0.3815,0.3899,0.408,0.423,0.4405,0.451,0.4609,0.449,0.4475,0.4437,0.4251,0.438,0.4322,0.3765,0.351,0.3385,0.3978,0.4066,0.4071,0.4075,0.4077,0.4079,0.3449,0.3483,0.3523,0.3579,0.3645,0.3688,0.3704,0.3822,0.395,0.4068,0.4257,0.4272,0.4247,0.4173,0.4112,0.3828,0.3897,0.3677,0.3679,0.359,0.3368,0.3821,0.3795,0.3798,0.3801,0.3804,0.3806,0,0.3461,0.3482,0.3537,0.3576,0.3586,0.3636,0.3704,0.3669,0.3716,0.3827,0.3901,0.379,0.3644,0.3581,0.3337,0.3163,0.3026,0.3079,0.2859,0.2835,0.3349,0.3199,0.2893,0.2893,0.2893,0.2893,0.2894,0.2894,0.3472,0.3492,0.3495,0.3481,0.3489,0.3427,0.3407,0.3378,0.3396,0.3301,0.3192,0.3197,0.3226,0.3062,0.2811,0.2722,0.255,0.2358,0.2472,0.2841,0.2898,0.2951,0.2802,0.2417,0.2417,0.1795,0.179,0.1787]},{"header":{"parameterUnit":"m.s-1","parameterCategory":2,"la1":30.2991,"la2":30.254,"lo1":-89.0895,"lo2":-89.0444,"dy":0.0017,"dx":0.0017,"nx":28,"ny":28,"refTime":"2024-07-03T21:00:00:Z","depth":"0","parameterNumber":3,"parameterNumberName":"V-component_of_CURRENTS"},"data":[0,0,0,0,0,0,0,0,0,0,0,0,0,0,0,0,0,0,0,0,0,0,0,0,0,0,0,0,0,0,0,0,0,0,0,0,0,0,0,0,0,0,0,0,0,0,0,0,0,0,0,0,0,0,0,0,0,0,0.0333,0.0333,0,0.0308,0.0308,0.0307,0.0282,0.0282,0.0281,0.0281,0.0267,0.0267,0.0267,0,0,0,0,0,0,0,0,0,0,0,0,0,0.0334,0.0334,0.0333,0.0333,0.0333,0.0308,0.0308,0.0307,0.0282,0.0282,0.0281,0.0281,0.0267,0.0267,0.0267,0,0,0,0,0,0,0,0,0,0,0,0,0,0.0323,0.0334,0.0334,0.0318,0.0316,0.0308,0.0308,0.0307,0.0282,0.0282,0.0281,0.0281,0.0267,0.0267,0.0267,0.0275,0,0,0.0267,0.0267,0,0,0,0,0,0,0,0,0.0324,0.0323,0.032,0.0319,0.0317,0.0298,0.0303,0.0297,0.0282,0.0295,0.0281,0.0281,0.0279,0.0278,0.0274,0.0274,0.0274,0.0267,0.0267,0.0267,0.0267,0,0,0,0,0,0,0,0.0325,0.0324,0.0323,0.032,0.0318,0.0303,0.0301,0.0301,0.029,0.0293,0.0292,0.029,0.0278,0.0274,0.0273,0.0274,0.0267,0.0267,0.0267,0.0266,0.0286,0.0287,0,0,0,0,0,0,0.0331,0.0325,0.0324,0.0322,0.032,0.0303,0.0301,0.0304,0.0289,0.0287,0.029,0.0289,0.0274,0.0273,0.0273,0.0309,0.0267,0.0266,0.0266,0.0286,0.0287,0.0287,0,0,0,0,0,0,0.0331,0.0331,0.0325,0.0323,0.0321,0.0304,0.0307,0.0304,0.0301,0.0287,0.0284,0.0291,0.0274,0.0273,0.0281,0.0307,0.0266,0.0266,0.0285,0.0286,0.0287,0.0364,0,0,0,0,0,0,0.0331,0.0332,0.0337,0.0324,0.0322,0.033,0.0308,0.0304,0.0301,0.0299,0.0287,0.0285,0.0273,0.0282,0.0281,0.0306,0.0266,0.0284,0.0286,0.0287,0.0361,0.0367,0.0373,0,0,0,0,0,0.0332,0.0345,0.0338,0.0338,0.033,0.033,0.0328,0.0314,0.0302,0.0308,0.03,0.0285,0.0288,0.0282,0.0282,0.0307,0.0284,0.0285,0.0287,0.0358,0.0366,0.0373,0,0,0,0,0,0,0.0345,0.0343,0.0335,0.0346,0.0342,0.0327,0.0332,0.0319,0.0316,0.0316,0.0297,0.0295,0.0311,0.0295,0.0289,0.0314,0.0282,0.0284,0.0337,0.0344,0.0351,0.0388,0.0266,0,0,0,0,0,0.0352,0.0365,0.0354,0.0364,0.0364,0.0348,0.0346,0.0338,0.0332,0.0329,0.0321,0.0314,0.0316,0.0319,0.0315,0.0333,0.0319,0.0345,0.0352,0.0357,0.0386,0.0397,0.0407,0.0292,0.0292,0.0292,0,0,0.0359,0.0361,0.0367,0.0368,0.0364,0.0381,0.0346,0.0352,0.0372,0.033,0.0355,0.0336,0.0324,0.0343,0.0349,0.0335,0.0373,0.0359,0.0364,0.039,0.0399,0.0411,0.0421,0.0293,0.0293,0.0292,0,0,0.0389,0.0383,0.0407,0.041,0.0411,0.0406,0.041,0.0401,0.0403,0.0418,0.0395,0.0399,0.0394,0.0399,0.0398,0.0437,0.0405,0.0424,0.0493,0.0503,0.0513,0.0522,0.0483,0.0488,0.043,0.043,0.043,0,0.0399,0.0429,0.0413,0.0438,0.0454,0.0423,0.0457,0.0455,0.045,0.0471,0.0438,0.0456,0.0429,0.0476,0.0479,0.0456,0.0438,0.0467,0.0514,0.0522,0.053,0.0488,0.0493,0.0434,0.0433,0.0433,0.0433,0,0.0449,0.0473,0.0489,0.0517,0.0528,0.0551,0.055,0.0565,0.0558,0.0561,0.0596,0.0564,0.0582,0.0561,0.053,0.0578,0.0535,0.0519,0.05,0.0547,0.0498,0.0502,0.0439,0.0438,0.0437,0.0436,0,0,0.0475,0.0518,0.0525,0.0564,0.0576,0.0601,0.0637,0.0676,0.073,0.0705,0.0776,0.0746,0.0729,0.0727,0.0688,0.0685,0.0691,0.0628,0.0626,0.0599,0.0679,0.0636,0.0634,0.0685,0.0687,0.0689,0.0609,0,0.0523,0.0598,0.0604,0.0682,0.0724,0.0723,0.0773,0.0803,0.0819,0.0875,0.0847,0.0889,0.0793,0.0812,0.0792,0.0742,0.071,0.0712,0.063,0.0627,0.0593,0.0642,0.0644,0.0574,0.0613,0.0613,0.0613,0,0.0575,0.0624,0.0709,0.0796,0.0816,0.0861,0.0957,0.0996,0.105,0.1067,0.1089,0.1067,0.1072,0.0979,0.0908,0.0915,0.0801,0.0734,0.0729,0.0676,0.0594,0.054,0.0579,0.0465,0.0618,0.0618,0.0618,0,0.0623,0.0704,0.0784,0.0808,0.0891,0.0947,0.0998,0.1063,0.1135,0.12,0.1265,0.1244,0.1266,0.115,0.0994,0.096,0.0901,0.0837,0.0677,0.067,0.0653,0.0642,0.059,0.0769,0.0769,0.077,0.077,0,0.0682,0.0749,0.0821,0.0869,0.0994,0.1022,0.1161,0.1206,0.1301,0.1424,0.1375,0.1469,0.1314,0.1256,0.107,0.0902,0.0956,0.071,0.0669,0.0672,0.0665,0.0549,0.0458,0.0767,0.0767,0.0768,0.0768,0,0.0731,0.0767,0.0874,0.0978,0.1022,0.1116,0.1267,0.1371,0.1441,0.1604,0.1638,0.1658,0.1591,0.1395,0.1221,0.1023,0.0766,0.0756,0.0745,0.0706,0.0444,0.0357,0.0242,0.0188,0.0579,0.0577,0.0576,0,0.0767,0.0823,0.0956,0.1033,0.109,0.1227,0.1334,0.1435,0.1555,0.1734,0.183,0.1822,0.1848,0.1562,0.1221,0.0896,0.0738,0.0658,0.0593,0.0455,0.0328,0.0269,0.0228,0.0572,0.0571,0.057,0.0569,0,0.0844,0.0885,0.0973,0.1125,0.125,0.1395,0.1554,0.1672,0.1819,0.1977,0.2159,0.22,0.1933,0.1642,0.1184,0.0948,0.0582,0.0629,0.0515,0.0354,0.0262,0.0182,0.0557,0.0562,0.0563,0.0564,0.0564,0.0564,0.0903,0.0978,0.1087,0.1234,0.137,0.1546,0.1685,0.1877,0.2101,0.2347,0.2374,0.2452,0.2008,0.1407,0.1097,0.0524,0.0507,0.0339,0.0249,0.0206,0.0157,0.0495,0.0442,0.0442,0.0442,0.0442,0.0442,0,0.0974,0.1058,0.1192,0.1366,0.1511,0.1577,0.182,0.1983,0.2266,0.2473,0.2634,0.2417,0.1895,0.134,0.055,0.0204,0.01,0.003,-0.0037,-0.0058,0.0276,0.0282,0.0161,0.0161,0.0161,0.0161,0.0161,0.0161,0.1018,0.1141,0.1205,0.1442,0.1568,0.1776,0.1917,0.2187,0.2372,0.2614,0.2632,0.2603,0.2143,0.0868,0.0054,-0.0115,-0.0295,-0.0365,-0.0453,-0.0217,-0.0193,-0.0171,-0.0182,-0.0399,-0.04,-0.0719,-0.0723,-0.0726]}],[{"header":{"parameterUnit":"m.s-1","parameterCategory":2,"la1":30.2991,"la2":30.254,"lo1":-89.0895,"lo2":-89.0444,"dy":0.0017,"dx":0.0017,"nx":28,"ny":28,"refTime":"2024-07-03T21:00:00:Z","depth":"2","parameterNumber":2,"parameterNumberName":"U-component_of_CURRENTS"},"data":[0,0,0,0,0,0,0,0,0,0,0,0,0,0,0,0,0,0,0,0,0,0,0,0,0,0,0,0,0,0,0,0,0,0,0,0,0,0,0,0,0,0,0,0,0,0,0,0,0,0,0,0,0,0,0,0,0,0,0.2831,0.2832,0,0.2851,0.2851,0.2851,0.2843,0.2843,0.2843,0.2843,0.2864,0.2865,0.2866,0,0,0,0,0,0,0,0,0,0,0,0,0,0.281,0.281,0.2831,0.2832,0.2832,0.2851,0.2851,0.2851,0.2843,0.2843,0.2843,0.2842,0.2864,0.2865,0.2866,0,0,0,0,0,0,0,0,0,0,0,0,0,0.282,0.281,0.2831,0.2833,0.2834,0.2851,0.2851,0.2851,0.2843,0.2843,0.2843,0.2842,0.2864,0.2865,0.2866,0.2878,0,0,0.2869,0.287,0,0,0,0,0,0,0,0,0.282,0.282,0.2832,0.2833,0.2834,0.2847,0.2851,0.2861,0.2843,0.2836,0.2843,0.2842,0.2861,0.2862,0.2862,0.2879,0.288,0.2869,0.287,0.287,0.2871,0,0,0,0,0,0,0,0.2819,0.282,0.2836,0.2833,0.2834,0.2841,0.2842,0.2853,0.2847,0.2837,0.2837,0.2844,0.2861,0.2861,0.2862,0.288,0.2869,0.287,0.2871,0.2871,0.2948,0.2949,0,0,0,0,0,0,0.2822,0.2819,0.2835,0.2837,0.2829,0.2842,0.2842,0.284,0.2847,0.2849,0.2845,0.2844,0.2859,0.2861,0.2863,0.2918,0.287,0.2871,0.2872,0.2946,0.2948,0.295,0,0,0,0,0,0,0.2821,0.2823,0.2834,0.2831,0.2834,0.2842,0.284,0.2841,0.2851,0.2854,0.2855,0.2855,0.2859,0.2862,0.2885,0.2917,0.2872,0.2873,0.2945,0.2947,0.2949,0.3001,0,0,0,0,0,0,0.282,0.2822,0.2827,0.2831,0.2834,0.2856,0.2841,0.2842,0.2857,0.2856,0.2863,0.2864,0.2859,0.2883,0.2886,0.2918,0.2874,0.2943,0.2946,0.2948,0.2998,0.3005,0.3011,0,0,0,0,0,0.2819,0.2828,0.2827,0.283,0.2839,0.2857,0.2859,0.2862,0.2858,0.2868,0.2872,0.2864,0.2902,0.2885,0.2888,0.2921,0.2942,0.2945,0.2948,0.2995,0.3003,0.301,0,0,0,0,0,0,0.2824,0.2829,0.2828,0.2838,0.2852,0.2857,0.2872,0.2871,0.2882,0.2885,0.2878,0.288,0.2922,0.291,0.2892,0.2951,0.2922,0.2926,0.2957,0.2965,0.2971,0.3005,0.2875,0,0,0,0,0,0.2828,0.2834,0.2843,0.2854,0.2863,0.2869,0.2878,0.2882,0.2891,0.2896,0.2902,0.2912,0.2936,0.294,0.2961,0.2982,0.3009,0.3006,0.3013,0.3018,0.3049,0.3135,0.3153,0.296,0.296,0.296,0,0,0.2834,0.2839,0.2843,0.2856,0.2867,0.2885,0.2874,0.2897,0.2916,0.2898,0.293,0.2945,0.2951,0.2986,0.3002,0.2977,0.3079,0.3022,0.3027,0.3055,0.314,0.3159,0.3176,0.2962,0.2961,0.2961,0,0,0.285,0.2855,0.2865,0.2879,0.2902,0.2909,0.2919,0.2934,0.2947,0.2976,0.2979,0.3015,0.3029,0.3051,0.306,0.3115,0.3123,0.3113,0.3161,0.3243,0.3261,0.3276,0.3298,0.3315,0.3101,0.3102,0.3102,0,0.286,0.2869,0.2875,0.2892,0.2911,0.2921,0.2944,0.2961,0.2984,0.301,0.2996,0.3068,0.3069,0.3129,0.3146,0.3134,0.3163,0.3127,0.3254,0.327,0.3286,0.3305,0.3323,0.3104,0.3104,0.3104,0.3104,0,0.2879,0.2894,0.2907,0.2928,0.2951,0.2975,0.3,0.3031,0.3048,0.3068,0.3142,0.3156,0.3203,0.3202,0.3189,0.3292,0.3271,0.3265,0.3237,0.3309,0.3323,0.3341,0.3109,0.3108,0.3107,0.3106,0,0,0.288,0.2912,0.2917,0.2931,0.2973,0.2988,0.3043,0.3093,0.314,0.3173,0.3251,0.3287,0.3312,0.3327,0.3325,0.3382,0.3491,0.3369,0.3372,0.3395,0.3644,0.3531,0.3539,0.3515,0.352,0.3523,0.3598,0,0.2894,0.2924,0.2944,0.2982,0.3,0.304,0.3087,0.3139,0.3191,0.327,0.3317,0.3392,0.3351,0.3394,0.3448,0.35,0.3549,0.3469,0.3569,0.3571,0.3467,0.3561,0.3247,0.328,0.3615,0.3619,0.3621,0,0.2902,0.2922,0.2957,0.3006,0.302,0.305,0.314,0.3188,0.3303,0.3352,0.3444,0.3496,0.3596,0.356,0.3679,0.3633,0.3655,0.3675,0.3678,0.3578,0.3495,0.3271,0.3301,0.3651,0.3649,0.3647,0.3645,0,0.2883,0.293,0.2955,0.2971,0.3031,0.3068,0.3114,0.3216,0.3286,0.3434,0.3515,0.3623,0.3705,0.3771,0.3803,0.3768,0.3929,0.3879,0.3789,0.3778,0.3534,0.3495,0.3989,0.3988,0.3988,0.3988,0.3988,0,0.288,0.2896,0.2947,0.2956,0.3004,0.306,0.3147,0.3211,0.3353,0.3446,0.3562,0.3661,0.3775,0.3867,0.3872,0.3884,0.3984,0.3831,0.3816,0.3535,0.3498,0.3841,0.3823,0.3991,0.399,0.399,0.3989,0,0.2848,0.2876,0.2902,0.2966,0.299,0.3027,0.3155,0.3221,0.3359,0.35,0.3567,0.3738,0.3845,0.3916,0.4028,0.3962,0.3993,0.3969,0.3603,0.3543,0.376,0.3744,0.3881,0.3878,0.3876,0.3874,0.3872,0,0.2821,0.2835,0.2901,0.292,0.2947,0.3022,0.3073,0.3207,0.3289,0.3521,0.3578,0.3762,0.3826,0.3928,0.3886,0.3879,0.3968,0.3571,0.3453,0.3792,0.3763,0.375,0.3737,0.3129,0.3121,0.3115,0.311,0,0.2772,0.2806,0.2832,0.2885,0.2922,0.2978,0.3066,0.3113,0.3277,0.3397,0.3522,0.3606,0.3713,0.3572,0.3588,0.3535,0.3545,0.3443,0.394,0.3204,0.3089,0.3058,0.307,0.3055,0.306,0.3064,0.3067,0.3069,0.2735,0.2749,0.2794,0.2828,0.287,0.2884,0.2879,0.2962,0.3038,0.3132,0.3322,0.333,0.3361,0.3221,0.3107,0.3015,0.326,0.3087,0.3104,0.3128,0.3028,0.2915,0.2825,0.2829,0.2833,0.2836,0.2839,0,0.2679,0.2713,0.2737,0.2741,0.2722,0.2804,0.2833,0.2788,0.2767,0.2888,0.2959,0.2741,0.265,0.2686,0.2455,0.2428,0.2379,0.2319,0.223,0.2288,0.2339,0.2196,0.1775,0.1771,0.1768,0.1765,0,0,0.2653,0.2639,0.264,0.257,0.2588,0.2514,0.249,0.2436,0.246,0.2389,0.2376,0.2581,0.2645,0.2208,0.212,0.1912,0.2088,0.1828,0.2688,0.2645,0.2692,0.2793,0.264,0,0,0,0,0]},{"header":{"parameterUnit":"m.s-1","parameterCategory":2,"la1":30.2991,"la2":30.254,"lo1":-89.0895,"lo2":-89.0444,"dy":0.0017,"dx":0.0017,"nx":28,"ny":28,"refTime":"2024-07-03T21:00:00:Z","depth":"2","parameterNumber":3,"parameterNumberName":"V-component_of_CURRENTS"},"data":[0,0,0,0,0,0,0,0,0,0,0,0,0,0,0,0,0,0,0,0,0,0,0,0,0,0,0,0,0,0,0,0,0,0,0,0,0,0,0,0,0,0,0,0,0,0,0,0,0,0,0,0,0,0,0,0,0,0,0.0206,0.0205,0,0.0186,0.0185,0.0185,0.0164,0.0164,0.0164,0.0164,0.0147,0.0147,0.0147,0,0,0,0,0,0,0,0,0,0,0,0,0,0.0196,0.0197,0.0206,0.0205,0.0205,0.0186,0.0185,0.0185,0.0164,0.0164,0.0164,0.0164,0.0147,0.0147,0.0147,0,0,0,0,0,0,0,0,0,0,0,0,0,0.0191,0.0197,0.0206,0.0193,0.0192,0.0186,0.0185,0.0185,0.0165,0.0164,0.0164,0.0163,0.0148,0.0147,0.0147,0.0152,0,0,0.0146,0.0146,0,0,0,0,0,0,0,0,0.0191,0.0191,0.0195,0.0194,0.0192,0.0178,0.0176,0.0174,0.0165,0.0174,0.0164,0.0163,0.0158,0.0157,0.0154,0.0151,0.0151,0.0146,0.0146,0.0146,0.0146,0,0,0,0,0,0,0,0.0191,0.0191,0.0197,0.0195,0.0193,0.0178,0.0177,0.0176,0.0168,0.0173,0.0172,0.0171,0.0158,0.0154,0.0153,0.0151,0.0146,0.0146,0.0146,0.0145,0.0157,0.0157,0,0,0,0,0,0,0.0197,0.0192,0.0198,0.0197,0.0191,0.0179,0.0178,0.0182,0.0168,0.0166,0.0171,0.017,0.0155,0.0153,0.0152,0.0178,0.0146,0.0145,0.0145,0.0156,0.0157,0.0157,0,0,0,0,0,0,0.0197,0.0198,0.0199,0.0194,0.0193,0.018,0.0185,0.0182,0.0181,0.0166,0.0164,0.0173,0.0154,0.0153,0.0159,0.0176,0.0145,0.0145,0.0156,0.0156,0.0157,0.0216,0,0,0,0,0,0,0.0197,0.0198,0.0204,0.0195,0.0193,0.0203,0.0185,0.0182,0.0181,0.0179,0.0167,0.0165,0.0154,0.016,0.0159,0.0175,0.0145,0.0155,0.0156,0.0157,0.0213,0.0219,0.0223,0,0,0,0,0,0.0197,0.0209,0.0205,0.0205,0.0202,0.0204,0.0203,0.0191,0.0181,0.0187,0.018,0.0166,0.0165,0.016,0.0159,0.0176,0.0154,0.0156,0.0157,0.0211,0.0218,0.0223,0,0,0,0,0,0,0.0205,0.0208,0.0203,0.0215,0.0212,0.0201,0.0205,0.0196,0.0193,0.0194,0.0176,0.0174,0.0183,0.0171,0.0166,0.018,0.0156,0.0157,0.0198,0.0204,0.0208,0.0225,0.0144,0,0,0,0,0,0.021,0.0224,0.0219,0.0229,0.023,0.0218,0.0217,0.0211,0.0207,0.0205,0.0197,0.0189,0.0186,0.0189,0.0182,0.0195,0.0171,0.0202,0.0207,0.0211,0.0223,0.0209,0.0214,0.0161,0.0161,0.0161,0,0,0.0215,0.022,0.0226,0.0232,0.0229,0.0244,0.0217,0.0223,0.0238,0.0205,0.0223,0.0206,0.0192,0.0204,0.0207,0.0198,0.0209,0.0213,0.0217,0.0226,0.0211,0.0216,0.0221,0.0162,0.0161,0.0161,0,0,0.0238,0.0238,0.0259,0.0263,0.0267,0.0263,0.0268,0.0262,0.0263,0.0276,0.0255,0.0251,0.0249,0.0244,0.024,0.0268,0.0233,0.0261,0.0306,0.0292,0.0297,0.0301,0.0259,0.0258,0.0267,0.0268,0.0268,0,0.0244,0.0272,0.0263,0.0285,0.0299,0.0277,0.0305,0.0303,0.0301,0.0311,0.0291,0.0288,0.027,0.0289,0.0294,0.0281,0.0257,0.0286,0.03,0.0303,0.0306,0.0262,0.0261,0.027,0.027,0.027,0.027,0,0.0284,0.0307,0.032,0.0346,0.0357,0.0377,0.0377,0.0387,0.0382,0.0379,0.0392,0.0364,0.0367,0.0353,0.0333,0.0347,0.0316,0.0305,0.0288,0.0315,0.0266,0.0264,0.0275,0.0274,0.0273,0.0272,0,0,0.0302,0.0342,0.0349,0.0381,0.0395,0.0415,0.0441,0.0465,0.0496,0.0475,0.0513,0.0484,0.0463,0.0457,0.0426,0.0408,0.0391,0.0369,0.0367,0.0332,0.0341,0.0313,0.0307,0.0384,0.0385,0.0385,0.0292,0,0.034,0.0403,0.041,0.0473,0.0508,0.0507,0.0541,0.0557,0.0562,0.059,0.0555,0.0576,0.0505,0.0516,0.0482,0.0429,0.0391,0.0416,0.0316,0.0312,0.0289,0.0306,0.0328,0.0248,0.029,0.0289,0.0289,0,0.0381,0.0422,0.0492,0.0559,0.0574,0.0607,0.0668,0.0697,0.0716,0.0722,0.0718,0.0693,0.0671,0.061,0.0511,0.0531,0.0439,0.0378,0.0373,0.0329,0.0282,0.023,0.0241,0.0285,0.0285,0.0285,0.0285,0,0.0417,0.0485,0.055,0.057,0.0632,0.067,0.0706,0.0738,0.0791,0.0815,0.0854,0.0802,0.0805,0.0691,0.0555,0.054,0.0436,0.04,0.0277,0.0272,0.0263,0.0258,0.032,0.032,0.032,0.0321,0.0321,0,0.0463,0.0516,0.0575,0.0613,0.0704,0.0725,0.0824,0.0845,0.0906,0.0992,0.0931,0.0982,0.0829,0.0753,0.0598,0.0436,0.0465,0.0288,0.0257,0.0281,0.0279,0.0295,0.0293,0.0317,0.0318,0.0319,0.0319,0,0.0495,0.0529,0.0612,0.0691,0.0725,0.0793,0.0915,0.0989,0.1024,0.1138,0.116,0.1129,0.1032,0.0849,0.0671,0.0511,0.0349,0.0275,0.0299,0.0272,0.0173,0.0175,0.013,0.0129,0.0128,0.0126,0.0125,0,0.0517,0.0561,0.0672,0.0739,0.0781,0.0889,0.0975,0.1044,0.1138,0.1238,0.1305,0.1249,0.1229,0.0935,0.0661,0.0381,0.0339,0.0196,0.017,0.0185,0.0158,0.0163,0.0167,0.0165,0.0164,0.0164,0.0164,0,0.0561,0.0599,0.0673,0.0807,0.091,0.1037,0.1165,0.1257,0.1361,0.1455,0.1547,0.1537,0.1275,0.1013,0.0629,0.0434,0.0244,0.0177,0.0208,0.0216,0.0212,0.0188,0.0192,0.016,0.016,0.016,0.0161,0.0161,0.0598,0.0659,0.0761,0.0891,0.1013,0.1171,0.1288,0.1424,0.1582,0.1721,0.1703,0.1681,0.1378,0.0896,0.0569,0.0218,0.0234,0.009,0.0093,0.0097,0.0124,0.012,0.0052,0.0052,0.0052,0.0052,0.0052,0,0.0652,0.0729,0.0844,0.1002,0.1137,0.1203,0.141,0.1531,0.1714,0.1813,0.1873,0.1579,0.1288,0.0933,0.0428,0.0121,0.0099,0.0004,0.0051,0.0057,0.0062,0.0089,0.0006,0.0005,0.0004,0.0003,0,0,0.0687,0.0798,0.0857,0.1074,0.1196,0.1388,0.1513,0.1681,0.1793,0.1881,0.1864,0.1808,0.1394,0.1011,0.0599,0.031,0.0249,0.024,0.0309,0.042,0.0428,0.0142,0.0194,0,0,0,0,0]}],[{"header":{"parameterUnit":"m.s-1","parameterCategory":2,"la1":30.2991,"la2":30.254,"lo1":-89.0895,"lo2":-89.0444,"dy":0.0017,"dx":0.0017,"nx":28,"ny":28,"refTime":"2024-07-03T21:00:00:Z","depth":"4","parameterNumber":2,"parameterNumberName":"U-component_of_CURRENTS"},"data":[0,0,0,0,0,0,0,0,0,0,0,0,0,0,0,0,0,0,0,0,0,0,0,0,0,0,0,0,0,0,0,0,0,0,0,0,0,0,0,0,0,0,0,0,0,0,0,0,0,0,0,0,0,0,0,0,0,0,0.1832,0.1833,0,0.1887,0.1887,0.1887,0.1938,0.1939,0.194,0.1941,0.2,0.2001,0.2001,0,0,0,0,0,0,0,0,0,0,0,0,0,0.1752,0.1753,0.1832,0.1833,0.1834,0.1887,0.1887,0.1887,0.1938,0.1939,0.194,0.1941,0.2,0.2,0.2001,0,0,0,0,0,0,0,0,0,0,0,0,0,0.1792,0.1753,0.1832,0.1868,0.1872,0.1887,0.1887,0.1888,0.1938,0.1939,0.1941,0.1942,0.1999,0.2,0.2001,0.198,0,0,0.2005,0.2005,0,0,0,0,0,0,0,0,0.1789,0.1794,0.1862,0.1866,0.187,0.191,0.1881,0.192,0.1938,0.1909,0.1941,0.1943,0.1971,0.1975,0.1977,0.1983,0.1985,0.2005,0.2005,0.2006,0.2006,0,0,0,0,0,0,0,0.1787,0.1792,0.185,0.1863,0.1868,0.1875,0.1882,0.1888,0.1929,0.1912,0.1917,0.1927,0.1973,0.1976,0.1979,0.1986,0.2005,0.2006,0.2006,0.2007,0.211,0.2112,0,0,0,0,0,0,0.1786,0.1789,0.1849,0.1852,0.1836,0.1876,0.1883,0.1893,0.1929,0.1937,0.1926,0.193,0.1974,0.1978,0.1981,0.2071,0.2006,0.2007,0.2007,0.2108,0.211,0.2113,0,0,0,0,0,0,0.1784,0.1791,0.1847,0.1825,0.1833,0.1876,0.1886,0.1894,0.1937,0.1941,0.1948,0.1968,0.1975,0.198,0.2026,0.207,0.2007,0.2008,0.2105,0.2109,0.2112,0.2179,0,0,0,0,0,0,0.1781,0.1789,0.1813,0.1825,0.1834,0.1881,0.1886,0.1894,0.1941,0.1947,0.1978,0.1982,0.1976,0.2025,0.2027,0.207,0.2009,0.2103,0.2107,0.2111,0.2174,0.2184,0.2193,0,0,0,0,0,0.1778,0.1797,0.1814,0.1822,0.186,0.1882,0.1888,0.192,0.1942,0.1964,0.1992,0.1984,0.2052,0.2027,0.203,0.2074,0.2101,0.2106,0.211,0.217,0.2182,0.2192,0,0,0,0,0,0,0.1775,0.1805,0.1823,0.1852,0.188,0.1893,0.1923,0.1942,0.198,0.2001,0.2002,0.2008,0.2072,0.2062,0.2034,0.2118,0.2078,0.2084,0.2123,0.2134,0.2143,0.2152,0.201,0,0,0,0,0,0.1785,0.1812,0.1836,0.1865,0.1883,0.1911,0.1932,0.1955,0.1982,0.2003,0.2027,0.2056,0.2085,0.2102,0.2125,0.2158,0.216,0.2193,0.2202,0.221,0.222,0.2267,0.2281,0.2128,0.2128,0.2128,0,0,0.1793,0.1814,0.1831,0.1868,0.1894,0.1924,0.1928,0.1973,0.2009,0.2001,0.2071,0.2095,0.2105,0.2155,0.2181,0.2154,0.2253,0.2216,0.2222,0.2228,0.2273,0.2288,0.2301,0.2132,0.2131,0.213,0,0,0.1808,0.1843,0.1868,0.1896,0.1945,0.1961,0.1983,0.2023,0.2058,0.2113,0.2129,0.2179,0.2216,0.2235,0.2245,0.2317,0.2308,0.2333,0.2378,0.2423,0.2436,0.2447,0.246,0.2472,0.2329,0.2329,0.2329,0,0.1822,0.1854,0.188,0.1912,0.1943,0.1982,0.2017,0.2051,0.2105,0.2139,0.2151,0.2239,0.2254,0.2307,0.2342,0.2339,0.2355,0.2331,0.2435,0.2446,0.2457,0.2467,0.2479,0.2333,0.2332,0.2332,0.2332,0,0.1842,0.1887,0.1907,0.196,0.1994,0.2036,0.208,0.2133,0.2183,0.2214,0.2301,0.2327,0.2378,0.2396,0.2393,0.2476,0.246,0.2447,0.2403,0.2476,0.2482,0.2494,0.2338,0.2337,0.2336,0.2335,0,0,0.1829,0.1907,0.1922,0.1952,0.2029,0.2049,0.2126,0.219,0.224,0.2311,0.2376,0.2444,0.2474,0.2489,0.25,0.2539,0.2626,0.2534,0.2534,0.254,0.2718,0.254,0.2535,0.2639,0.2642,0.2644,0.2689,0,0.1846,0.1905,0.1946,0.2011,0.2043,0.2109,0.2166,0.2233,0.2298,0.237,0.2426,0.2494,0.2502,0.2541,0.2588,0.2628,0.2663,0.2614,0.2652,0.2653,0.2481,0.2544,0.2652,0.2698,0.27,0.2702,0.2703,0,0.1851,0.1891,0.1956,0.2033,0.2055,0.2105,0.2205,0.2263,0.2369,0.2423,0.2509,0.2551,0.2644,0.2631,0.2737,0.2713,0.2729,0.2743,0.2744,0.2563,0.2497,0.2613,0.2724,0.2722,0.2721,0.2719,0.2718,0,0.1809,0.1896,0.1949,0.1978,0.207,0.2124,0.2187,0.229,0.2349,0.2472,0.253,0.2628,0.2704,0.2753,0.2806,0.2788,0.2899,0.2865,0.2711,0.2698,0.2813,0.2801,0.2928,0.2928,0.2928,0.2928,0.2928,0,0.1792,0.1835,0.1939,0.1965,0.2027,0.2109,0.2195,0.2269,0.2387,0.2447,0.2563,0.2621,0.2749,0.282,0.2836,0.2812,0.2928,0.2729,0.2705,0.2839,0.2829,0.282,0.2807,0.293,0.2929,0.2929,0.2929,0,0.1722,0.1803,0.1856,0.1966,0.2009,0.2054,0.2193,0.2236,0.2376,0.2464,0.2511,0.2663,0.2753,0.2832,0.2919,0.2838,0.2832,0.2788,0.2928,0.291,0.2587,0.2578,0.2606,0.2601,0.2596,0.2592,0.2588,0,0.1682,0.1709,0.1834,0.1868,0.1926,0.2018,0.2068,0.2215,0.2255,0.2457,0.2468,0.2629,0.2705,0.2687,0.2785,0.2785,0.2753,0.2715,0.2646,0.2584,0.2559,0.2557,0.2554,0.258,0.2579,0.2578,0.2577,0,0.159,0.1656,0.1699,0.1774,0.1838,0.1891,0.1979,0.2003,0.216,0.2313,0.2373,0.2425,0.2521,0.258,0.2608,0.2601,0.2719,0.2664,0.2673,0.2607,0.2553,0.2532,0.2535,0.256,0.2562,0.2564,0.2565,0,0.1518,0.1527,0.1602,0.1648,0.1718,0.1727,0.1803,0.1854,0.1928,0.2142,0.2164,0.2336,0.25,0.2485,0.2508,0.2494,0.2445,0.2341,0.2366,0.2385,0.2291,0.2188,0.207,0,0,0,0,0,0.1435,0.1434,0.1465,0.1502,0.156,0.1605,0.171,0.1787,0.1951,0.1931,0.2043,0.2116,0.218,0.2272,0.2212,0.2393,0.2444,0.2309,0.2334,0.2466,0.2486,0.2394,0,0,0,0,0,0,0.1382,0.1411,0.1416,0.136,0.1362,0.1405,0.1472,0.1588,0.1586,0.1777,0.1828,0.1972,0.207,0.2198,0.2171,0.2193,0.2158,0.2418,0.2411,0.2455,0.2473,0.2488,0.2401,0,0,0,0,0]},{"header":{"parameterUnit":"m.s-1","parameterCategory":2,"la1":30.2991,"la2":30.254,"lo1":-89.0895,"lo2":-89.0444,"dy":0.0017,"dx":0.0017,"nx":28,"ny":28,"refTime":"2024-07-03T21:00:00:Z","depth":"4","parameterNumber":3,"parameterNumberName":"V-component_of_CURRENTS"},"data":[0,0,0,0,0,0,0,0,0,0,0,0,0,0,0,0,0,0,0,0,0,0,0,0,0,0,0,0,0,0,0,0,0,0,0,0,0,0,0,0,0,0,0,0,0,0,0,0,0,0,0,0,0,0,0,0,0,0,0.0152,0.0151,0,0.0143,0.0143,0.0143,0.0133,0.0133,0.0133,0.0133,0.0125,0.0125,0.0125,0,0,0,0,0,0,0,0,0,0,0,0,0,0.0137,0.0138,0.0152,0.0151,0.0151,0.0143,0.0143,0.0143,0.0133,0.0133,0.0133,0.0132,0.0125,0.0125,0.0125,0,0,0,0,0,0,0,0,0,0,0,0,0,0.0138,0.0138,0.0152,0.0145,0.0145,0.0143,0.0143,0.0143,0.0133,0.0133,0.0133,0.0132,0.0125,0.0125,0.0125,0.0129,0,0,0.0124,0.0124,0,0,0,0,0,0,0,0,0.0138,0.0138,0.0146,0.0146,0.0145,0.0139,0.0135,0.0138,0.0133,0.0137,0.0133,0.0132,0.013,0.0129,0.0128,0.0128,0.0128,0.0124,0.0124,0.0124,0.0124,0,0,0,0,0,0,0,0.0138,0.0138,0.0148,0.0146,0.0146,0.0136,0.0136,0.0136,0.0135,0.0137,0.0136,0.0136,0.013,0.0128,0.0128,0.0128,0.0124,0.0124,0.0124,0.0124,0.0132,0.0132,0,0,0,0,0,0,0.014,0.0138,0.0148,0.0148,0.0141,0.0136,0.0136,0.0141,0.0135,0.0134,0.0136,0.0135,0.0129,0.0128,0.0128,0.0144,0.0124,0.0124,0.0124,0.0132,0.0132,0.0132,0,0,0,0,0,0,0.014,0.0142,0.0149,0.0143,0.0143,0.0137,0.0142,0.0141,0.0143,0.0134,0.0133,0.014,0.0128,0.0128,0.0135,0.0143,0.0124,0.0124,0.0131,0.0132,0.0132,0.0168,0,0,0,0,0,0,0.014,0.0142,0.0147,0.0143,0.0143,0.0154,0.0143,0.0141,0.0143,0.0142,0.0137,0.0136,0.0128,0.0135,0.0135,0.0142,0.0124,0.0131,0.0132,0.0132,0.0167,0.017,0.0172,0,0,0,0,0,0.014,0.015,0.0148,0.0149,0.0151,0.0155,0.0154,0.0148,0.0144,0.0149,0.0146,0.0136,0.0138,0.0136,0.0135,0.0143,0.0131,0.0131,0.0132,0.0165,0.0169,0.0172,0,0,0,0,0,0,0.0144,0.015,0.0147,0.0158,0.0159,0.0153,0.0158,0.0153,0.0155,0.0156,0.0144,0.0144,0.0149,0.0142,0.014,0.0145,0.0131,0.0131,0.0156,0.016,0.0163,0.0168,0.0124,0,0,0,0,0,0.0148,0.016,0.0159,0.0168,0.017,0.0165,0.0165,0.0163,0.0163,0.0163,0.016,0.0155,0.0151,0.0153,0.0148,0.0157,0.0135,0.0159,0.0162,0.0165,0.0168,0.0143,0.0144,0.0134,0.0134,0.0134,0,0,0.0152,0.0157,0.0163,0.017,0.017,0.0181,0.0165,0.0172,0.0182,0.0163,0.0177,0.0165,0.0154,0.0161,0.0163,0.0158,0.0154,0.0165,0.0168,0.017,0.0144,0.0145,0.0145,0.0135,0.0135,0.0135,0,0,0.0167,0.0171,0.0186,0.019,0.0196,0.0195,0.0199,0.0199,0.0201,0.0212,0.0197,0.0192,0.0193,0.0184,0.018,0.0196,0.0168,0.0193,0.0217,0.0193,0.0193,0.0193,0.0161,0.0158,0.0198,0.0198,0.0198,0,0.0171,0.0191,0.0189,0.0205,0.0215,0.0204,0.0224,0.0223,0.0226,0.0233,0.0223,0.0216,0.0204,0.0207,0.021,0.0203,0.0181,0.0207,0.0197,0.0196,0.0196,0.0162,0.0158,0.02,0.0199,0.0199,0.0199,0,0.0196,0.0214,0.0224,0.0243,0.0252,0.0268,0.027,0.0279,0.0279,0.0276,0.028,0.026,0.0258,0.0247,0.0234,0.0228,0.0209,0.02,0.0189,0.0199,0.0163,0.0158,0.0202,0.0201,0.0201,0.02,0,0,0.0206,0.0237,0.0242,0.0265,0.0278,0.0293,0.031,0.0326,0.0346,0.0332,0.0351,0.0328,0.0312,0.0305,0.0283,0.0257,0.0228,0.0231,0.0229,0.02,0.0166,0.0151,0.0144,0.0217,0.0217,0.0217,0.0139,0,0.0229,0.0272,0.028,0.0324,0.0348,0.0352,0.0376,0.0387,0.0389,0.0402,0.0371,0.0376,0.0336,0.0338,0.0305,0.0255,0.0219,0.025,0.0159,0.0156,0.0143,0.0139,0.0215,0.0136,0.0134,0.0134,0.0133,0,0.0253,0.0283,0.0331,0.0381,0.0393,0.0418,0.0461,0.0482,0.0487,0.0489,0.0476,0.0448,0.0416,0.0378,0.0289,0.0311,0.024,0.0189,0.0185,0.0156,0.0133,0.0123,0.0124,0.0125,0.0126,0.0126,0.0127,0,0.0272,0.0322,0.0367,0.0382,0.043,0.046,0.049,0.051,0.0548,0.0545,0.0563,0.0509,0.0501,0.0405,0.0296,0.0294,0.0185,0.0172,0.0085,0.0083,0.0104,0.0104,0.0095,0.0095,0.0095,0.0096,0.0096,0,0.0297,0.0335,0.0384,0.0411,0.0481,0.0499,0.0572,0.0588,0.0623,0.0674,0.0616,0.063,0.0508,0.0431,0.0314,0.0188,0.0198,0.0086,0.0064,0.0119,0.0123,0.01,0.0101,0.0093,0.0093,0.0094,0.0094,0,0.0309,0.0339,0.04,0.0463,0.0494,0.0547,0.0644,0.0695,0.0714,0.0776,0.078,0.0729,0.0631,0.0486,0.0332,0.023,0.0097,0.0043,0.0108,0.0091,0.0003,0.0008,-0.0053,-0.0055,-0.0056,-0.0056,-0.0057,0,0.0319,0.0349,0.0441,0.0496,0.0532,0.0618,0.0687,0.074,0.0795,0.0838,0.0867,0.0793,0.0736,0.051,0.0346,0.0114,0.0075,-0.0004,-0.0002,0.0005,-0.0011,-0.0005,0.0,-0.0059,-0.0059,-0.0059,-0.0059,0,0.0338,0.0371,0.0427,0.0536,0.062,0.072,0.0815,0.0863,0.0928,0.0942,0.0943,0.0828,0.0715,0.0524,0.0338,0.0171,0.0045,-0.0015,-0.0014,-0.0013,-0.0002,-0.0016,-0.0009,-0.0063,-0.0062,-0.0062,-0.0062,0,0.0358,0.0401,0.0481,0.058,0.0687,0.0795,0.0846,0.0916,0.0973,0.1005,0.1002,0.0876,0.0804,0.0554,0.0385,0.0215,0.017,0.0105,0.0098,0.01,0.0161,0.0199,0.018,0,0,0,0,0,0.0379,0.0437,0.0524,0.064,0.0742,0.081,0.0922,0.0963,0.1018,0.1027,0.1019,0.0909,0.0678,0.0578,0.0407,0.0351,0.0128,0.0142,0.0047,-0.0081,-0.0077,-0.0034,0,0,0,0,0,0,0.0399,0.0479,0.0524,0.0667,0.0751,0.0876,0.0951,0.0992,0.0994,0.1015,0.0896,0.0848,0.0619,0.0774,0.0398,0.0348,0.0259,0.0037,0.0032,-0.0083,-0.008,-0.0077,-0.0031,0,0,0,0,0]}]]